THORAD AGENA D DEB, 42513

Orbit data source: Space-Track

THORAD AGENA D DEB, 42513 is space debris in SSO originally from a launch on Wed, 08 Apr 1970 UTC launched from the Air Force Western Test Range (AFWTR). Debris objects in space refer to the collection of defunct objects orbiting the Earth. Examples of debris include non-operational satellites, rocket bodies, and fragments generated from explosions, collisions, or faulty payload assembly.

Loading next visibility...
Identifier
42513, 1970-025RT
Orbit
SSO
Last TLE update
4 months ago
Origin
Manufacturer
Unknown
Mission
Spacecraft
Bus & Motor
Unknown
Mass
Unknown
Launch date (UTC)
1970-04-08 (55 years ago)
Launch vehicle
Unknown
Launch site
Air Force Western Test Range (AFWTR)
Object type
Payload
Rocket body
Debris
Shape & HBR
Unknown
Radar Cross Section
Small (<0.1 m²)

Expand to show TLE details & history

TLE from 4 months ago
0 THORAD AGENA D DEB
1 42513U 70025RT  24359.58583637  .00002790  00000-0  23631-2 0  9992
2 42513  99.9797 284.6724 0013355 121.3432 238.9032 13.88466891 50694
Epoch: 2024-12-24T14:03Z
Definitive object data (Epoch: 2024-12-24T14:03:36.262Z)
Latitude
0.00003°
Longitude
-19.82051°
Altitude
941.891 km
Speed
7.378 km/s
True Right ascension
18h 58m 41s
True Declination
0° 00' 00"
Sunlit
Object was in daylight at TLE epoch
Visualization TLE readout
Latitude
-73.81133°
Longitude
-91.77619°
Altitude
964.696 km
Speed
7.365 km/s
Apparent Right ascension
03h 39m 55s
Apparent Declination
-75° 10' 50"
Sunlit
Object is in daylight
Visualization observer readout
Local Sidereal Time
15:03:23
Azimuth
184.009° SSW
Elevation
-54.489°
Doppler factor
1
Orbital elements
Apogee altitude
941.035 km
Perigee altitude
921.512 km
Semi-major axis
7,309.411 km
Eccentricity
0.0013355
Inclination
99.9797°
RAAN
284.6724°
Arg. of periapsis
121.3432°
True anomaly
238.77227°
Mean anomaly
238.9032°
Eccentric anomaly
238.83772°
Mean motion
3.47312 °/min
BSTAR
0.0023631
Orbital period
103.65 mins
Loading maneuver chart data...
Loading SW <> Apogee altitude chart data...

THORAD AGENA D DEB Visibility forecast

Observer location: undefined°, undefined°

Span
Click to sort rows by Start time (UTC) header in descending order
Start Az.
Max El. time (UTC)
Max El. Az.
Max El.
End time (UTC)
End Az.
9 mins2025-05-09 08:00:28.350Z40.917° NE2025-05-09 08:04:28.350Z88.315° E25.51°2025-05-09 08:09:28.350Z153.08° SSE
9 mins2025-05-09 09:43:28.350Z352.072° N2025-05-09 09:47:28.350Z286.331° WNW32.75°2025-05-09 09:52:28.350Z226.042° WSW
10 mins2025-05-09 19:37:28.350Z151.768° SSE2025-05-09 19:42:28.350Z46.541° ENE42.729°2025-05-09 19:47:28.350Z350.428° N
5 mins2025-05-09 21:22:28.350Z241.131° WSW2025-05-09 21:24:28.350Z263.736° W15.685°2025-05-09 21:27:28.350Z297.661° NW
|